Tracking 25710 objects as of 5-Jul-2022
HD Live streaming from Space Station
objects crossing your sky now

FENGYUN 1C DEB

Track FENGYUN 1C DEB now!
10-day predictions


NORAD ID: 31660
Int'l Code: 1999-025CBS
Perigee: 749.8 km
Apogee: 907.6 km
Inclination: 98.5 °
Period: 101.3 minutes
Semi major axis: 7199 km
RCS: 0.0107 m2 (small)
Launch date: May 10, 1999
Source: People's Republic of China (PRC)
Launch site: Taiyaun Space Center, China (TSC)

Note: This is SATELLITE DEBRIS
aabbcc
Your satellite tracking list
Your tracking list is empty




NASA's NSSDC Master Catalog

Two Line Element Set (TLE):
1 31660U 99025CBS 22185.82984737  .00000400  00000-0  19216-3 0  9993
2 31660  98.5457 210.4878 0109649 245.0820 113.8931 14.21123502488058
Source of the keplerian elements: AFSPC